World > North America > United States > Indiana

Winamac, Indiana Regional Weather

Lat: 41.05N, Lon: 86.6W
Wx Zone: INZ013
Feedback

Winamac, IN Regional Weather

Expires:202002181700;;731335
ASUS43 KIND 181609
RWRIN 

WEATHER ROUNDUP FOR INDIANA
NATIONAL WEATHER SERVICE INDIANAPOLIS IN
1100 AM EST TUE FEB 18 2020

NOTE: "FAIR" INDICATES FEW OR NO CLOUDS BELOW 12,000 FEET WITH NO
SIGNIFICANT WEATHER AND/OR OBSTRUCTIONS TO VISIBILITY.

* - STATION DOES NOT REPORT WEATHER SUCH AS PRECIPITATION OR FOG.

+ - STATION NOT QUALITY CONTROLLED BY THE NATIONAL WEATHER SERVICE.
    USE DATA WITH CAUTION...ESPECIALLY DEWPOINT AND RELATIVE
    HUMIDITY OBSERVATIONS.


INZ001>003-010>013-019-020-181700-
NORTHWEST INDIANA
  
CITY           SKY/WX    TMP DP  RH WIND       PRES   REMARKS
GARY /AIRPORT/ CLOUDY    37  30  75 W23       30.10R WCI  26          
KNOX *+        CLOUDY    36  32  87 NW10G17   30.09R WCI  28          
LA PORTE +     PTSUNNY   35  30  82 NW8G16    30.09R WCI  28          
MICHIGAN CITY+ CLOUDY    34  34 100 NW9       30.09R WCI  26          
RENSSELAER +   CLOUDY    36  32  87 W14       30.12R WCI  27          
VALPARAISO     CLOUDY    36  29  75 NW12      30.09R WCI  28          

$$


SKY/WX - Weather  TMP - Temperature  DP - Dew Point  RH - Relative Humidity
WIND - Wind Direction/Speed PRES - Barometric Pressure VSB - Visibility
WCI - Wind Chill Index E13G22 Wind - East Wind 13 mph/Gusts of 22 mph
Indiana Weather Map
What is UTC time?